SCP
0 0 0 0 0 0 -0 -0 -0 -0 -0 -0 -0 -0 -0 0 0 0 0 0 0 0 0 0 0 0 0 0 0 0 0 0 0 0 0 0 0 0 0 0 0 0 0 0 0 0 0
0 0 -0 -0 0 0 0 0 0 -0 -0 -0 -0 -0 -0 0 0 0 0 0 0 0 0 0 0 0 0 0 0 0 0 0 0 0 0 0 0 0 0 0 0 0 0 0 0 0 0
-0 -0 -0 0 0 0 0 0 0 0 0 0 -0 -0 -0 0 0 0 0 0 0 0 0 0 0 0 0 0 0 0 0 0 0 0 0 -0 0 0 0 0 0 0 0 0 0 0 0
-0 -0 -0 0 0 0 0 0 0 0 0 0 0 0 0 0 0 0 0 0 0 0 0 0 0 0 0 0 0 0 0 0 0 0 -0 -0 0 0 0 0 0 0 0 0 0 0 0
0 0 0 0 0 0 0 0 0 0 0 0 0 -0 -0 -0 0 0 0 0 -0 0 0 0 0 0 0 0 -0 -0 0 0 0 0 -0 0 0 0 0 0 0 0 0 0 0 0 0
0 0 0 0 0 0 0 0 0 0 0 -0 -0 -0 -0 -0 0 0 0 0 0 0 0 0 0 0 0 0 0 0 0 0 0 0 0 0 0 0 0 0 0 0 0 0 0 0 0
0 0 0 0 0 0 0 0 0 0 0 -0 -0 -0 -0 0 0 0 0 0 0 0 0 0 0 -0 0 0 0 0 0 0 0 0 0 0 0 0 0 -0 0 0 0 0 0 0 0
0 0 0 0 0 0 0 0 0 0 0 0 -0 -0 -0 0 0 0 0 0 0 0 0 -0 0 0 0 0 0 0 0 0 0 0 0 0 0 0 0 -0 0 0 0 0 0 0 0
0 0 0 0 0 0 0 0 0 0 0 0 -0 -0 -0 0 0 0 0 0 -0 0 0 0 0 0 0 0 -0 -0 0 0 0 0 -0 0 0 0 0 0 0 0 0 0 0 0 0
0 0 0 0 0 0 0 0 0 0 0 -0 -0 -0 -0 0 0 0 0 0 0 0 0 0 0 0 0 -0 -0 -0 0 0 0 0 0 0 0 0 0 0 0 0 -0 -0 0 0 0
0 0 0 0 0 0 0 0 0 0 0 -0 -0 -0 0 0 0 0 0 0 0 0 0 0 0 0 0 0 0 -0 -0 0 -0 0 0 0 0 0 0 0 0 0 0 0 0 0 0
0 0 0 0 0 0 0 0 0 0 0 -0 0 -0 -0 0 0 0 -0 0 0 0 0 0 0 0 0 0 -0 0 0 0 0 0 0 0 0 0 0 0 0 0 0 0 0 0 0
0 0 0 0 0 0 0 0 0 0 0 -0 -0 -0 0 0 0 0 0 0 0 0 0 0 0 0 -0 0 0 0 0 0 0 0 0 0 0 0 0 0 0 0 0 0 0 0 0
0 0 0 0 0 0 0 0 0 0 0 0 -0 -0 0 0 0 0 0 0 0 0 0 0 0 0 0 0 0 0 0 0 0 0 0 0 0 0 0 0 0 0 0 0 0 0 0
0 0 0 0 0 0 0 0 0 0 0 0 -0 -0 0 0 -0 0 0 0 0 0 0 0 0 0 0 0 0 0 0 0 0 0 0 0 0 0 0 0 0 0 0 0 0 0 0
0 0 0 0 0 0 0 0 0 0 0 0 0 0 0 0 0 0 0 0 0 0 0 0 0 0 0 0 0 0 0 0 -0 -0 0 0 0 0 0 0 0 0 0 0 0 0 0
0 0 0 0 0 0 0 0 0 0 0 0 -0 0 0 0 0 0 0 0 0 0 0 0 0 0 0 0 0 0 0 0 0 -0 -0 0 0 0 0 0 0 0 0 0 0 0 0
0 0 0 0 0 0 0 0 0 0 -0 -0 0 0 0 0 0 0 0 0 0 0 0 0 0 0 0 0 0 0 0 0 0 0 0 0 0 0 0 0 0 0 0 0 0 0 0
0 0 0 0 0 0 0 0 0 -0 -0 0 0 0 0 0 0 0 0 0 0 0 0 0 0 0 0 0 0 0 0 0 0 0 0 0 0 0 0 0 0 0 0 0 0 0 0
0 0 0 0 0 0 0 -0 -0 -0 -0 -0 0 0 0 0 0 0 0 0 0 0 0 0 0 0 0 0 0 0 0 0 0 0 0 0 0 0 0 0 0 0 0 0 0 0 0
0 0 0 0 -0 0 -0 -0 -0 -0 -0 -0 0 0 0 0 0 0 0 0 0 0 0 0 0 0 0 0 0 0 0 0 0 0 0 0 0 0 0 0 0 0 0 0 0 0 0
0 0 0 0 0 -0 -0 -0 -0 -0 -0 -0 0 0 0 0 0 0 0 0 0 0 0 0 0 0 0 0 0 0 0 0 0 0 0 0 0 0 0 0 0 0 0 0 0 0 0
0 0 0 0 -0 -0 -0 -0 -0 -0 -0 0 0 0 0 0 0 0 0 0 0 0 0 0 0 0 0 0 0 0 0 0 0 0 0 0 0 0 0 0 0 0 0 0 0 0 0
0 0 0 0 -0 -0 -0 -0 -0 -0 -0 0 0 0 0 0 0 0 -0 0 -0 0 0 0 0 0 0 0 0 0 0 0 0 0 0 0 0 0 0 0 0 0 0 0 0 0 0
0 0 0 0 0 -0 -0 -0 -0 -0 0 0 0 0 0 0 0 0 -0 0 -0 0 0 0 0 0 0 0 0 0 0 0 0 0 0 0 0 0 0 0 0 0 0 0 0 0 0
0 0 0 0 0 0 0 -0 0 0 0 0 0 0 0 0 0 0 0 0 0 0 0 0 0 0 0 0 0 0 0 0 0 0 0 0 0 0 0 0 0 0 0 0 0 0 0
0 0 0 0 0 0 0 0 0 0 0 0 0 0 0 0 0 -0 0 0 0 0 0 0 0 0 0 0 0 0 0 0 0 0 0 0 0 0 0 0 0 0 0 0 0 0 0
0 0 0 0 0 0 0 0 0 0 0 0 0 0 0 0 -0 0 0 0 0 0 0 0 0 0 0 0 0 0 0 0 0 0 0 0 0 0 0 0 0 0 0 0 0 0 0
0 0 0 0 0 0 0 0 0 0 0 0 0 0 0 -0 -0 -0 -0 -0 -0 0 0 0 0 0 0 0 0 0 0 0 0 0 0 0 0 0 0 0 0 0 0 0 0 0 0
Wind_Speed_500mb
48 49 49 49 50 50 50 51 52 51 49 49 47 44 38 35 34 31 28 25 22 20 19 19 18 19 19 13 41 19 14 3 34 42 41 35 36 17 12 14 14 11 12 26 47 48 52
50 50 51 51 51 52 52 52 51 51 50 49 49 46 40 35 33 31 27 25 22 19 18 17 17 19 16 11 13 8 30 29 31 38 40 41 29 33 9 8 14 13 22 41 41 56 35
52 53 53 54 54 54 54 54 53 52 52 51 49 48 42 35 30 29 26 23 21 19 17 17 18 22 26 43 21 13 15 28 31 31 38 45 18 19 10 5 22 21 9 13 17 28 18
53 53 54 54 54 54 55 54 54 54 54 53 52 51 47 40 30 27 25 22 20 18 17 17 19 22 23 17 22 30 19 25 29 26 30 39 36 16 12 14 8 4 6 1 11 10 16
55 56 56 57 58 58 57 56 55 55 56 56 54 53 47 42 33 25 24 22 21 19 19 19 19 16 24 15 26 28 20 22 26 24 26 15 11 16 8 7 8 11 6 9 13 18 7
56 57 57 58 58 58 58 58 58 57 56 56 56 55 52 44 35 23 22 23 25 23 20 13 15 10 25 19 24 31 27 24 15 17 12 17 14 5 5 7 10 10 6 6 8 6 7
58 59 60 59 59 59 60 60 59 58 58 57 58 56 55 47 38 25 19 19 9 6 19 22 13 22 18 7 10 34 36 34 27 7 10 12 6 12 21 12 13 2 4 8 27 18 13
60 60 60 61 61 61 60 60 61 60 60 60 59 57 58 48 43 31 23 17 10 3 21 39 48 56 54 35 7 32 40 25 13 11 6 6 11 22 14 11 8 5 5 18 12 3 14
62 62 62 62 62 62 63 63 63 64 62 61 61 59 58 51 47 39 30 29 12 15 8 24 35 31 30 27 26 33 35 46 9 13 11 14 15 13 10 6 6 8 9 7 3 7 24
64 65 65 65 65 65 65 67 67 66 66 64 62 62 59 53 36 21 16 22 13 11 6 12 10 15 20 18 11 42 41 32 4 15 15 12 17 17 10 11 16 11 10 11 15 10 9
66 67 67 67 68 68 67 69 71 71 68 68 64 63 61 54 43 44 10 6 12 13 7 6 7 9 25 25 11 31 47 30 16 10 13 16 6 5 5 12 16 11 5 11 9 12 7
67 68 68 69 69 70 70 71 73 74 74 69 68 64 66 56 44 25 20 17 19 9 10 8 7 1 12 13 14 14 46 31 12 9 4 15 5 4 13 6 8 18 13 19 13 9 5
70 70 70 71 71 71 72 72 77 78 77 74 71 64 65 53 28 13 26 18 8 7 4 2 4 6 1 3 7 14 17 13 11 9 8 6 8 6 12 15 11 12 13 7 7 4 10
70 71 72 71 71 70 71 73 77 81 80 78 71 65 57 31 24 34 15 8 7 9 10 4 4 8 8 15 6 14 16 13 5 8 6 9 7 4 3 4 14 3 14 11 10 8 8
70 71 72 74 74 71 71 72 76 82 82 78 73 60 39 8 33 44 20 6 16 10 5 2 3 9 2 9 8 9 7 12 12 14 15 8 8 5 5 8 12 7 7 8 14 7 4
70 71 71 72 72 70 69 71 72 80 82 74 73 58 21 7 38 44 9 10 9 9 4 4 2 5 6 5 9 12 5 5 4 11 8 13 7 2 7 8 15 13 14 7 6 7 7
69 69 68 69 67 66 65 68 67 73 82 68 52 27 30 13 45 15 9 11 9 25 12 8 7 6 2 6 6 8 7 7 17 7 16 12 7 7 3 2 14 5 5 13 10 8 11
69 68 66 66 64 64 62 63 62 66 80 62 26 7 15 31 6 3 6 11 15 14 9 6 8 9 10 9 4 10 0 2 12 6 10 5 11 9 6 6 2 6 9 11 10 10 4
69 66 65 62 62 64 63 62 60 59 71 63 32 12 19 10 4 6 9 7 12 8 7 5 6 9 7 9 2 6 13 10 5 7 13 12 5 8 12 11 10 11 8 10 10 6 10
68 67 65 62 62 65 63 62 59 56 58 35 11 7 15 16 10 5 9 6 8 12 6 8 4 9 8 6 3 8 12 7 3 8 20 14 7 12 13 11 8 8 6 9 10 7 6
68 66 65 62 61 61 61 61 59 56 44 24 14 6 9 6 10 15 8 8 5 4 7 13 11 8 8 5 7 9 7 3 14 12 10 8 7 4 5 11 7 7 5 10 10 9 10
66 64 62 59 59 57 58 58 58 57 47 22 12 11 18 9 20 8 6 13 9 7 6 5 12 2 4 10 7 6 5 2 4 9 7 6 2 5 3 4 8 6 5 5 6 6 5
66 64 62 59 57 52 55 55 54 56 58 25 20 9 6 12 11 6 12 11 13 4 18 8 8 9 7 6 7 10 8 3 8 13 5 7 11 7 8 1 7 5 9 7 9 12 6
66 64 62 58 56 49 50 48 47 48 51 42 25 15 13 7 8 7 17 10 22 14 7 13 12 7 4 8 1 3 12 22 26 17 6 10 11 6 4 8 7 3 14 22 18 11 12
65 64 59 55 50 46 45 43 41 42 44 34 27 18 13 6 11 16 29 11 30 32 16 12 26 18 14 5 8 9 9 6 10 13 16 7 9 7 9 7 7 3 6 8 7 2 7
64 62 59 55 48 43 40 38 36 37 37 23 21 24 11 9 8 17 10 19 6 10 14 15 20 24 7 7 7 5 8 6 4 2 9 13 14 9 4 7 12 5 6 16 4 5 3
63 61 56 50 46 42 37 35 35 33 31 18 18 22 9 6 7 20 9 8 18 9 3 10 20 21 23 6 6 4 1 2 7 6 9 9 8 7 4 5 5 4 13 13 6 1 9
62 57 47 46 49 44 37 34 33 30 28 23 9 11 13 8 11 8 17 11 12 10 3 12 7 11 9 9 5 1 5 3 8 4 4 5 2 3 4 4 5 12 8 6 4 8 19
59 50 47 52 48 41 35 31 28 27 25 22 9 15 14 10 9 13 18 16 8 17 8 13 4 2 2 7 4 5 7 6 3 4 7 6 3 5 5 4 8 8 2 13 17 25 28
Wind_Direction_500mb
9 8 6 4 2 0 359 359 358 355 352 349 346 339 330 322 323 322 315 308 298 290 280 272 270 272 278 258 253 247 270 213 166 172 182 180 176 155 162 187 169 205 246 242 247 264 266
6 5 4 3 1 359 359 358 357 355 352 350 348 343 336 323 318 320 316 309 302 293 284 276 273 273 266 248 273 261 230 221 209 190 189 187 189 181 199 207 172 216 220 251 269 267 262
4 3 2 360 359 358 357 356 355 353 352 351 348 345 339 328 313 314 316 309 301 293 284 276 269 270 263 256 282 247 214 218 217 212 197 189 156 176 183 244 254 255 274 309 252 251 241
1 360 358 356 356 355 354 353 353 352 351 350 348 346 342 333 316 308 312 311 300 289 280 273 273 272 257 270 254 220 214 208 219 219 207 203 204 239 241 268 339 225 84 15 274 148 254
356 355 354 353 353 353 351 350 350 349 349 348 346 344 341 334 321 303 300 304 301 286 277 275 269 244 267 228 219 187 195 198 197 201 208 138 199 243 229 135 5 3 220 205 310 199 110
353 351 350 349 349 348 347 347 346 346 346 345 344 342 339 334 325 302 290 294 291 276 257 251 239 281 240 249 218 201 201 195 166 192 217 225 215 193 55 109 214 222 219 256 222 224 141
350 348 347 346 346 345 344 342 343 343 343 342 342 342 338 332 324 306 278 282 275 259 226 220 238 234 287 21 203 197 207 214 221 222 169 189 134 216 225 172 190 56 325 290 283 244 125
347 346 345 344 343 342 341 339 338 339 340 340 339 339 338 330 322 302 268 231 236 26 294 272 262 261 259 250 306 214 210 183 158 215 99 3 236 224 213 192 116 257 310 287 283 336 98
344 344 343 342 341 340 339 338 336 335 336 337 336 334 336 330 319 297 266 257 271 272 271 286 247 243 251 227 229 231 208 199 165 178 186 175 237 120 177 228 126 274 169 222 137 46 64
341 341 340 339 339 339 338 336 335 334 332 333 333 331 330 328 317 299 291 126 32 291 31 277 218 238 187 172 216 218 214 190 208 191 163 216 258 235 176 211 152 187 213 101 68 61 130
339 339 339 338 338 337 337 335 333 331 330 328 329 328 325 320 295 278 247 324 340 143 347 264 179 172 165 169 141 198 210 197 179 182 120 237 271 187 145 215 147 178 76 63 101 94 76
338 338 338 338 338 338 337 336 333 330 328 326 324 325 318 313 289 294 232 226 152 56 253 310 340 10 152 197 191 136 188 205 221 155 212 247 295 163 178 99 109 129 70 39 40 28 35
337 337 337 337 337 337 337 337 334 331 328 325 320 321 314 298 273 187 166 165 60 161 304 347 350 340 342 178 211 141 168 174 169 113 210 284 216 116 100 81 33 88 69 27 35 29 202
336 335 334 334 334 335 336 336 336 332 329 326 321 320 314 287 210 172 150 73 157 227 243 182 128 349 50 23 352 192 147 196 140 90 103 141 331 136 199 187 171 42 134 148 177 178 228
334 334 334 334 334 333 334 335 336 334 330 329 326 322 316 277 190 188 173 124 193 219 261 49 195 88 171 5 43 40 50 189 173 159 169 142 190 78 179 162 136 185 84 165 101 16 62
337 336 336 335 335 333 334 334 335 334 333 335 331 323 324 209 175 161 102 205 208 217 117 90 113 19 128 56 22 26 57 304 249 164 138 215 118 203 189 115 42 132 152 78 16 149 241
341 340 339 338 338 337 337 336 336 337 334 337 335 325 345 149 151 174 158 216 240 265 264 161 171 95 294 91 113 15 254 275 277 317 145 139 106 239 77 94 162 69 86 50 112 128 171
346 345 343 343 343 342 343 343 343 344 339 342 349 344 11 137 58 58 154 192 213 235 244 152 125 109 148 188 202 168 268 229 270 170 158 126 128 136 168 339 131 97 145 134 130 224 210
350 349 349 350 350 350 350 347 349 352 348 336 333 306 30 276 47 336 303 274 215 207 159 121 161 167 178 154 199 155 227 236 4 203 159 183 28 76 359 1 10 103 129 108 116 87 194
352 352 351 350 350 353 354 350 352 357 350 346 354 2 13 64 50 43 328 319 360 355 76 124 176 101 125 52 127 266 199 293 31 42 78 90 102 146 176 191 156 131 104 95 104 114 200
353 352 352 352 351 355 355 355 355 5 5 12 15 26 6 343 4 348 323 308 316 91 59 34 23 140 143 102 46 0 31 298 50 18 52 85 121 121 128 136 136 158 173 144 168 192 158
353 352 353 353 354 355 356 359 360 8 19 34 40 12 352 314 313 250 325 350 30 21 72 27 114 123 165 139 167 130 10 147 188 31 66 26 118 83 169 217 143 126 29 211 86 25 117
352 352 354 355 356 356 358 2 5 9 17 32 21 16 337 324 333 18 353 329 351 30 28 69 120 92 103 159 173 208 235 287 230 142 120 92 128 94 225 195 106 4 343 359 91 52 1
353 353 353 355 355 356 360 4 8 12 14 13 23 19 9 330 12 0 343 10 28 350 69 1 47 98 343 330 13 66 50 70 50 16 51 124 107 109 159 89 201 118 59 75 94 70 49
352 352 351 353 355 355 359 4 11 14 14 24 45 33 22 342 315 349 2 9 11 23 31 34 20 0 341 41 51 30 355 72 42 37 12 48 126 82 145 159 110 265 23 33 44 107 41
353 352 351 351 352 353 357 3 10 15 22 47 36 34 24 327 359 329 338 10 28 338 357 353 17 28 33 73 74 130 199 222 105 64 40 43 59 104 103 143 195 91 342 333 189 197 29
354 354 354 358 1 2 1 2 5 9 20 29 46 17 6 331 351 11 17 339 14 8 348 321 342 357 13 48 69 76 348 328 68 58 352 6 10 73 80 101 104 329 313 297 195 102 290
355 356 359 1 357 357 356 355 355 360 6 18 11 346 1 317 326 357 357 360 10 30 78 319 15 354 24 57 93 279 76 75 88 39 74 79 17 77 83 130 201 354 350 9 252 322 322
358 0 358 352 352 352 350 347 348 350 354 354 350 303 293 270 292 350 24 7 21 0 353 26 101 270 32 83 45 93 51 50 97 100 12 39 33 131 113 158 317 335 343 0 348 322 321
Wind_Speed_850mb
48 49 49 49 50 50 50 51 52 51 49 49 47 44 38 35 34 31 28 25 22 20 19 19 18 19 19 13 41 19 14 3 34 42 41 35 36 17 12 14 14 11 12 26 47 48 52
50 50 51 51 51 52 52 52 51 51 50 49 49 46 40 35 33 31 27 25 22 19 18 17 17 19 16 11 13 8 30 29 31 38 40 41 29 33 9 8 14 13 22 41 41 56 35
52 53 53 54 54 54 54 54 53 52 52 51 49 48 42 35 30 29 26 23 21 19 17 17 18 22 26 43 21 13 15 28 31 31 38 45 18 19 10 5 22 21 9 13 17 28 18
53 53 54 54 54 54 55 54 54 54 54 53 52 51 47 40 30 27 25 22 20 18 17 17 19 22 23 17 22 30 19 25 29 26 30 39 36 16 12 14 8 4 6 1 11 10 16
55 56 56 57 58 58 57 56 55 55 56 56 54 53 47 42 33 25 24 22 21 19 19 19 19 16 24 15 26 28 20 22 26 24 26 15 11 16 8 7 8 11 6 9 13 18 7
56 57 57 58 58 58 58 58 58 57 56 56 56 55 52 44 35 23 22 23 25 23 20 13 15 10 25 19 24 31 27 24 15 17 12 17 14 5 5 7 10 10 6 6 8 6 7
58 59 60 59 59 59 60 60 59 58 58 57 58 56 55 47 38 25 19 19 9 6 19 22 13 22 18 7 10 34 36 34 27 7 10 12 6 12 21 12 13 2 4 8 27 18 13
60 60 60 61 61 61 60 60 61 60 60 60 59 57 58 48 43 31 23 17 10 3 21 39 48 56 54 35 7 32 40 25 13 11 6 6 11 22 14 11 8 5 5 18 12 3 14
62 62 62 62 62 62 63 63 63 64 62 61 61 59 58 51 47 39 30 29 12 15 8 24 35 31 30 27 26 33 35 46 9 13 11 14 15 13 10 6 6 8 9 7 3 7 24
64 65 65 65 65 65 65 67 67 66 66 64 62 62 59 53 36 21 16 22 13 11 6 12 10 15 20 18 11 42 41 32 4 15 15 12 17 17 10 11 16 11 10 11 15 10 9
66 67 67 67 68 68 67 69 71 71 68 68 64 63 61 54 43 44 10 6 12 13 7 6 7 9 25 25 11 31 47 30 16 10 13 16 6 5 5 12 16 11 5 11 9 12 7
67 68 68 69 69 70 70 71 73 74 74 69 68 64 66 56 44 25 20 17 19 9 10 8 7 1 12 13 14 14 46 31 12 9 4 15 5 4 13 6 8 18 13 19 13 9 5
70 70 70 71 71 71 72 72 77 78 77 74 71 64 65 53 28 13 26 18 8 7 4 2 4 6 1 3 7 14 17 13 11 9 8 6 8 6 12 15 11 12 13 7 7 4 10
70 71 72 71 71 70 71 73 77 81 80 78 71 65 57 31 24 34 15 8 7 9 10 4 4 8 8 15 6 14 16 13 5 8 6 9 7 4 3 4 14 3 14 11 10 8 8
70 71 72 74 74 71 71 72 76 82 82 78 73 60 39 8 33 44 20 6 16 10 5 2 3 9 2 9 8 9 7 12 12 14 15 8 8 5 5 8 12 7 7 8 14 7 4
70 71 71 72 72 70 69 71 72 80 82 74 73 58 21 7 38 44 9 10 9 9 4 4 2 5 6 5 9 12 5 5 4 11 8 13 7 2 7 8 15 13 14 7 6 7 7
69 69 68 69 67 66 65 68 67 73 82 68 52 27 30 13 45 15 9 11 9 25 12 8 7 6 2 6 6 8 7 7 17 7 16 12 7 7 3 2 14 5 5 13 10 8 11
69 68 66 66 64 64 62 63 62 66 80 62 26 7 15 31 6 3 6 11 15 14 9 6 8 9 10 9 4 10 0 2 12 6 10 5 11 9 6 6 2 6 9 11 10 10 4
69 66 65 62 62 64 63 62 60 59 71 63 32 12 19 10 4 6 9 7 12 8 7 5 6 9 7 9 2 6 13 10 5 7 13 12 5 8 12 11 10 11 8 10 10 6 10
68 67 65 62 62 65 63 62 59 56 58 35 11 7 15 16 10 5 9 6 8 12 6 8 4 9 8 6 3 8 12 7 3 8 20 14 7 12 13 11 8 8 6 9 10 7 6
68 66 65 62 61 61 61 61 59 56 44 24 14 6 9 6 10 15 8 8 5 4 7 13 11 8 8 5 7 9 7 3 14 12 10 8 7 4 5 11 7 7 5 10 10 9 10
66 64 62 59 59 57 58 58 58 57 47 22 12 11 18 9 20 8 6 13 9 7 6 5 12 2 4 10 7 6 5 2 4 9 7 6 2 5 3 4 8 6 5 5 6 6 5
66 64 62 59 57 52 55 55 54 56 58 25 20 9 6 12 11 6 12 11 13 4 18 8 8 9 7 6 7 10 8 3 8 13 5 7 11 7 8 1 7 5 9 7 9 12 6
66 64 62 58 56 49 50 48 47 48 51 42 25 15 13 7 8 7 17 10 22 14 7 13 12 7 4 8 1 3 12 22 26 17 6 10 11 6 4 8 7 3 14 22 18 11 12
65 64 59 55 50 46 45 43 41 42 44 34 27 18 13 6 11 16 29 11 30 32 16 12 26 18 14 5 8 9 9 6 10 13 16 7 9 7 9 7 7 3 6 8 7 2 7
64 62 59 55 48 43 40 38 36 37 37 23 21 24 11 9 8 17 10 19 6 10 14 15 20 24 7 7 7 5 8 6 4 2 9 13 14 9 4 7 12 5 6 16 4 5 3
63 61 56 50 46 42 37 35 35 33 31 18 18 22 9 6 7 20 9 8 18 9 3 10 20 21 23 6 6 4 1 2 7 6 9 9 8 7 4 5 5 4 13 13 6 1 9
62 57 47 46 49 44 37 34 33 30 28 23 9 11 13 8 11 8 17 11 12 10 3 12 7 11 9 9 5 1 5 3 8 4 4 5 2 3 4 4 5 12 8 6 4 8 19
59 50 47 52 48 41 35 31 28 27 25 22 9 15 14 10 9 13 18 16 8 17 8 13 4 2 2 7 4 5 7 6 3 4 7 6 3 5 5 4 8 8 2 13 17 25 28
Wind_Direction_850mb
9 8 6 4 2 0 359 359 358 355 352 349 346 339 330 322 323 322 315 308 298 290 280 272 270 272 278 258 253 247 270 213 166 172 182 180 176 155 162 187 169 205 246 242 247 264 266
6 5 4 3 1 359 359 358 357 355 352 350 348 343 336 323 318 320 316 309 302 293 284 276 273 273 266 248 273 261 230 221 209 190 189 187 189 181 199 207 172 216 220 251 269 267 262
4 3 2 360 359 358 357 356 355 353 352 351 348 345 339 328 313 314 316 309 301 293 284 276 269 270 263 256 282 247 214 218 217 212 197 189 156 176 183 244 254 255 274 309 252 251 241
1 360 358 356 356 355 354 353 353 352 351 350 348 346 342 333 316 308 312 311 300 289 280 273 273 272 257 270 254 220 214 208 219 219 207 203 204 239 241 268 339 225 84 15 274 148 254
356 355 354 353 353 353 351 350 350 349 349 348 346 344 341 334 321 303 300 304 301 286 277 275 269 244 267 228 219 187 195 198 197 201 208 138 199 243 229 135 5 3 220 205 310 199 110
353 351 350 349 349 348 347 347 346 346 346 345 344 342 339 334 325 302 290 294 291 276 257 251 239 281 240 249 218 201 201 195 166 192 217 225 215 193 55 109 214 222 219 256 222 224 141
350 348 347 346 346 345 344 342 343 343 343 342 342 342 338 332 324 306 278 282 275 259 226 220 238 234 287 21 203 197 207 214 221 222 169 189 134 216 225 172 190 56 325 290 283 244 125
347 346 345 344 343 342 341 339 338 339 340 340 339 339 338 330 322 302 268 231 236 26 294 272 262 261 259 250 306 214 210 183 158 215 99 3 236 224 213 192 116 257 310 287 283 336 98
344 344 343 342 341 340 339 338 336 335 336 337 336 334 336 330 319 297 266 257 271 272 271 286 247 243 251 227 229 231 208 199 165 178 186 175 237 120 177 228 126 274 169 222 137 46 64
341 341 340 339 339 339 338 336 335 334 332 333 333 331 330 328 317 299 291 126 32 291 31 277 218 238 187 172 216 218 214 190 208 191 163 216 258 235 176 211 152 187 213 101 68 61 130
339 339 339 338 338 337 337 335 333 331 330 328 329 328 325 320 295 278 247 324 340 143 347 264 179 172 165 169 141 198 210 197 179 182 120 237 271 187 145 215 147 178 76 63 101 94 76
338 338 338 338 338 338 337 336 333 330 328 326 324 325 318 313 289 294 232 226 152 56 253 310 340 10 152 197 191 136 188 205 221 155 212 247 295 163 178 99 109 129 70 39 40 28 35
337 337 337 337 337 337 337 337 334 331 328 325 320 321 314 298 273 187 166 165 60 161 304 347 350 340 342 178 211 141 168 174 169 113 210 284 216 116 100 81 33 88 69 27 35 29 202
336 335 334 334 334 335 336 336 336 332 329 326 321 320 314 287 210 172 150 73 157 227 243 182 128 349 50 23 352 192 147 196 140 90 103 141 331 136 199 187 171 42 134 148 177 178 228
334 334 334 334 334 333 334 335 336 334 330 329 326 322 316 277 190 188 173 124 193 219 261 49 195 88 171 5 43 40 50 189 173 159 169 142 190 78 179 162 136 185 84 165 101 16 62
337 336 336 335 335 333 334 334 335 334 333 335 331 323 324 209 175 161 102 205 208 217 117 90 113 19 128 56 22 26 57 304 249 164 138 215 118 203 189 115 42 132 152 78 16 149 241
341 340 339 338 338 337 337 336 336 337 334 337 335 325 345 149 151 174 158 216 240 265 264 161 171 95 294 91 113 15 254 275 277 317 145 139 106 239 77 94 162 69 86 50 112 128 171
346 345 343 343 343 342 343 343 343 344 339 342 349 344 11 137 58 58 154 192 213 235 244 152 125 109 148 188 202 168 268 229 270 170 158 126 128 136 168 339 131 97 145 134 130 224 210
350 349 349 350 350 350 350 347 349 352 348 336 333 306 30 276 47 336 303 274 215 207 159 121 161 167 178 154 199 155 227 236 4 203 159 183 28 76 359 1 10 103 129 108 116 87 194
352 352 351 350 350 353 354 350 352 357 350 346 354 2 13 64 50 43 328 319 360 355 76 124 176 101 125 52 127 266 199 293 31 42 78 90 102 146 176 191 156 131 104 95 104 114 200
353 352 352 352 351 355 355 355 355 5 5 12 15 26 6 343 4 348 323 308 316 91 59 34 23 140 143 102 46 0 31 298 50 18 52 85 121 121 128 136 136 158 173 144 168 192 158
353 352 353 353 354 355 356 359 360 8 19 34 40 12 352 314 313 250 325 350 30 21 72 27 114 123 165 139 167 130 10 147 188 31 66 26 118 83 169 217 143 126 29 211 86 25 117
352 352 354 355 356 356 358 2 5 9 17 32 21 16 337 324 333 18 353 329 351 30 28 69 120 92 103 159 173 208 235 287 230 142 120 92 128 94 225 195 106 4 343 359 91 52 1
353 353 353 355 355 356 360 4 8 12 14 13 23 19 9 330 12 0 343 10 28 350 69 1 47 98 343 330 13 66 50 70 50 16 51 124 107 109 159 89 201 118 59 75 94 70 49
352 352 351 353 355 355 359 4 11 14 14 24 45 33 22 342 315 349 2 9 11 23 31 34 20 0 341 41 51 30 355 72 42 37 12 48 126 82 145 159 110 265 23 33 44 107 41
353 352 351 351 352 353 357 3 10 15 22 47 36 34 24 327 359 329 338 10 28 338 357 353 17 28 33 73 74 130 199 222 105 64 40 43 59 104 103 143 195 91 342 333 189 197 29
354 354 354 358 1 2 1 2 5 9 20 29 46 17 6 331 351 11 17 339 14 8 348 321 342 357 13 48 69 76 348 328 68 58 352 6 10 73 80 101 104 329 313 297 195 102 290
355 356 359 1 357 357 356 355 355 360 6 18 11 346 1 317 326 357 357 360 10 30 78 319 15 354 24 57 93 279 76 75 88 39 74 79 17 77 83 130 201 354 350 9 252 322 322
358 0 358 352 352 352 350 347 348 350 354 354 350 303 293 270 292 350 24 7 21 0 353 26 101 270 32 83 45 93 51 50 97 100 12 39 33 131 113 158 317 335 343 0 348 322 321